Weather History for Greenville, MS

Change the Weather History Date:

Tuesday, April 30, 2013

  Actual Average Record
Temperature  
Mean Temperature 68 °F 68 °F  
Max Temperature 83 °F 78 °F 92 °F (1943)
Min Temperature 52 °F 57 °F 44 °F (1965)
Degree Days  
Heating Degree Days 0 1  
Month to date heating degree days 165 116  
Since 1 July heating degree days 2643 2761  
Cooling Degree Days 3 4  
Month to date cooling degree days 67 64  
Year to date cooling degree days 79 86  
Growing Degree Days 18 (Base 50)    
Moisture  
Dew Point 58 °F    
Average Humidity 65    
Maximum Humidity 87    
Minimum Humidity 43    
Precipitation  
Precipitation 0.00 in 0.15 in 1.58 in (1975)
Month to date precipitation 3.45 4.81  
Year to date precipitation 20.66 19.35  
Sea Level Pressure  
Sea Level Pressure 29.92 in    
Wind  
Wind Speed 7 mph (SE)    
Max Wind Speed 16 mph    
Max Gust Speed 26 mph    
Visibility 10 miles    
Events      
T = Trace of Precipitation, MM = Missing Value Source: NWS Daily Summary

Daily Weather History Graph

Daily Weather History Graph

Search for Another Location

Airport:

Trip Planner

Search our weather history database for the weather conditions in past years. The results will help you decide how hot, cold, wet, or windy it might be!

Date:

Astronomy

Apr. 30, 2013 Rise Set
Actual Time 6:16 AM CDT 7:46 PM CDT
Civil Twilight 5:49 AM CDT 8:12 PM CDT
Nautical Twilight 5:18 AM CDT 8:44 PM CDT
Astronomical Twilight 4:45 AM CDT 9:17 PM CDT
Moon 12:06 AM CDT (4/30) 10:48 AM CDT (4/30)
Length of Visible Light 14h 22m
Length of Day
13h 29m
Waning Gibbous, 70% of the Moon is Illuminated
Apr 30
Waning Gibbous
May 2
Last Quarter
May 9
New
May 17
First Quarter
May 24
Full

Hourly Weather History & Observations

Time (CDT) Temp. Heat Index Dew Point Humidity Pressure Visibility Wind Dir Wind Speed Gust Speed Precip Events Conditions
12:53 AM 57.9 °F - 52.0 °F 81% 29.93 in 10.0 mi SSE 3.5 mph - N/A   Clear
1:53 AM 55.9 °F - 51.1 °F 84% 29.92 in 10.0 mi SE 3.5 mph - N/A   Clear
2:53 AM 55.9 °F - 51.1 °F 84% 29.91 in 10.0 mi ESE 3.5 mph - N/A   Clear
3:53 AM 57.9 °F - 52.0 °F 81% 29.91 in 10.0 mi East 3.5 mph - N/A   Clear
4:53 AM 57.0 °F - 52.0 °F 83% 29.90 in 10.0 mi ESE 3.5 mph - N/A   Clear
5:53 AM 57.0 °F - 52.0 °F 83% 29.92 in 10.0 mi Calm Calm - N/A   Clear
6:53 AM 55.0 °F - 52.0 °F 89% 29.94 in 10.0 mi SE 3.5 mph - N/A   Clear
7:53 AM 64.0 °F - 60.1 °F 87% 29.94 in 10.0 mi SE 5.8 mph - N/A   Clear
8:53 AM 70.0 °F - 63.0 °F 78% 29.94 in 10.0 mi SSE 6.9 mph - N/A   Clear
9:53 AM 75.0 °F - 64.0 °F 69% 29.95 in 10.0 mi South 6.9 mph - N/A   Clear
10:53 AM 77.0 °F - 64.0 °F 64% 29.95 in 10.0 mi South 6.9 mph - N/A   Clear
11:53 AM 81.0 °F 81.3 °F 59.0 °F 47% 29.95 in 10.0 mi SE 10.4 mph 16.1 mph N/A   Partly Cloudy
12:53 PM 81.0 °F 81.0 °F 57.0 °F 44% 29.93 in 10.0 mi SE 8.1 mph - N/A   Partly Cloudy
1:53 PM 82.0 °F 82.1 °F 59.0 °F 45% 29.91 in 10.0 mi SE 6.9 mph - N/A   Scattered Clouds
2:53 PM 82.0 °F 81.7 °F 57.0 °F 42% 29.89 in 10.0 mi SE 8.1 mph - N/A   Scattered Clouds
3:53 PM 81.0 °F 81.0 °F 57.0 °F 44% 29.88 in 10.0 mi SSE 11.5 mph 18.4 mph N/A   Clear
4:53 PM 80.1 °F 80.4 °F 57.0 °F 45% 29.87 in 10.0 mi SE 9.2 mph 17.3 mph N/A   Partly Cloudy
5:53 PM 80.1 °F 80.6 °F 57.9 °F 47% 29.88 in 10.0 mi ESE 9.2 mph - N/A   Partly Cloudy
6:53 PM 79.0 °F - 59.0 °F 50% 29.89 in 10.0 mi SE 11.5 mph - N/A   Mostly Cloudy
7:53 PM 75.9 °F - 60.1 °F 58% 29.90 in 10.0 mi SE 9.2 mph - N/A   Clear
8:53 PM 73.9 °F - 61.0 °F 64% 29.90 in 10.0 mi ESE 4.6 mph - N/A   Clear
9:53 PM 72.0 °F - 61.0 °F 68% 29.92 in 10.0 mi ESE 5.8 mph - N/A   Clear
10:53 PM 72.0 °F - 62.1 °F 71% 29.93 in 10.0 mi South 11.5 mph - N/A   Clear
11:53 PM 70.0 °F - 62.1 °F 76% 29.94 in 10.0 mi SSE 8.1 mph - N/A   Clear